Time,TemperatureF,DewpointF,PressureIn,WindDirection,WindDirectionDegrees,WindSpeedMPH,WindSpeedGustMPH,Humidity,HourlyPrecipIn,Conditions,Clouds,dailyrainin,SoftwareType,DateUTC
2013-06-01 00:01:00,56.0,45.5,29.88,North,0,0.2,1.1,68,0.00,,,0.00,WUHU216HW,2013-06-01 07:01:00,
2013-06-01 00:06:00,55.8,45.8,29.88,North,0,1.1,1.1,69,0.00,,,0.00,WUHU216HW,2013-06-01 07:06:00,
2013-06-01 00:11:00,55.8,45.8,29.87,North,0,1.1,2.2,69,0.00,,,0.00,WUHU216HW,2013-06-01 07:11:00,
2013-06-01 00:16:00,55.6,45.6,29.87,North,0,0.0,2.2,69,0.00,,,0.00,WUHU216HW,2013-06-01 07:16:00,
2013-06-01 00:21:00,55.4,45.5,29.87,North,0,0.0,0.9,69,0.00,,,0.00,WUHU216HW,2013-06-01 07:21:00,
2013-06-01 00:26:00,55.4,45.5,29.87,North,0,0.0,0.9,69,0.00,,,0.00,WUHU216HW,2013-06-01 07:26:00,
2013-06-01 00:31:00,55.3,45.3,29.87,North,0,0.6,0.9,69,0.00,,,0.00,WUHU216HW,2013-06-01 07:31:00,
2013-06-01 00:36:00,55.3,45.7,29.87,North,0,0.0,0.9,70,0.00,,,0.00,WUHU216HW,2013-06-01 07:36:00,
2013-06-01 00:41:00,55.3,45.7,29.87,North,0,0.0,0.7,70,0.00,,,0.00,WUHU216HW,2013-06-01 07:41:00,
2013-06-01 00:46:00,55.3,45.7,29.87,North,0,0.4,0.4,70,0.00,,,0.00,WUHU216HW,2013-06-01 07:46:00,
2013-06-01 00:51:00,55.3,45.7,29.87,North,0,0.7,1.3,70,0.00,,,0.00,WUHU216HW,2013-06-01 07:51:00,
2013-06-01 00:56:00,55.4,45.9,29.87,North,0,0.4,1.3,70,0.00,,,0.00,WUHU216HW,2013-06-01 07:56:00,
2013-06-01 01:01:00,55.4,45.9,29.87,North,0,0.7,0.7,70,0.00,,,0.00,WUHU216HW,2013-06-01 08:01:00,
2013-06-01 01:06:00,55.4,46.3,29.87,North,353,1.1,1.6,71,0.00,,,0.00,WUHU216HW,2013-06-01 08:06:00,
2013-06-01 01:11:00,55.4,46.3,29.87,North,0,0.8,1.6,71,0.00,,,0.00,WUHU216HW,2013-06-01 08:11:00,
2013-06-01 01:16:00,55.4,46.3,29.87,North,0,0.0,1.1,71,0.00,,,0.00,WUHU216HW,2013-06-01 08:16:00,
2013-06-01 01:21:00,55.4,45.9,29.87,North,0,0.0,1.1,70,0.00,,,0.00,WUHU216HW,2013-06-01 08:21:00,
2013-06-01 01:26:00,55.4,45.9,29.87,North,0,0.4,0.4,70,0.00,,,0.00,WUHU216HW,2013-06-01 08:26:00,
2013-06-01 01:31:00,55.4,46.3,29.87,NNE,23,0.0,1.8,71,0.00,,,0.00,WUHU216HW,2013-06-01 08:31:00,
2013-06-01 01:36:00,55.4,46.3,29.87,North,0,0.7,1.8,71,0.00,,,0.00,WUHU216HW,2013-06-01 08:36:00,
2013-06-01 01:41:00,55.4,46.3,29.87,North,0,0.0,0.7,71,0.00,,,0.00,WUHU216HW,2013-06-01 08:41:00,
2013-06-01 01:46:00,55.4,46.3,29.87,North,0,0.0,0.7,71,0.00,,,0.00,WUHU216HW,2013-06-01 08:46:00,
2013-06-01 01:51:00,55.4,46.3,29.87,North,0,0.0,1.8,71,0.00,,,0.00,WUHU216HW,2013-06-01 08:51:00,
2013-06-01 01:56:00,55.4,46.3,29.86,NNE,15,1.8,2.2,71,0.00,,,0.00,WUHU216HW,2013-06-01 08:56:00,
2013-06-01 02:01:00,55.3,46.1,29.86,NNE,23,2.9,2.9,71,0.00,,,0.00,WUHU216HW,2013-06-01 09:01:00,
2013-06-01 02:06:00,55.4,46.3,29.86,North,0,0.0,2.9,71,0.00,,,0.00,WUHU216HW,2013-06-01 09:06:00,
2013-06-01 02:11:00,55.3,45.7,29.86,North,0,0.9,2.9,70,0.00,,,0.00,WUHU216HW,2013-06-01 09:11:00,
2013-06-01 02:16:00,55.3,45.7,29.87,North,0,0.4,0.9,70,0.00,,,0.00,WUHU216HW,2013-06-01 09:16:00,
2013-06-01 02:21:00,55.3,45.7,29.87,North,0,0.0,0.9,70,0.00,,,0.00,WUHU216HW,2013-06-01 09:21:00,
2013-06-01 02:26:00,55.3,45.7,29.87,North,0,0.0,0.9,70,0.00,,,0.00,WUHU216HW,2013-06-01 09:26:00,
2013-06-01 02:31:00,55.3,46.1,29.86,North,0,2.2,2.2,71,0.00,,,0.00,WUHU216HW,2013-06-01 09:31:00,
2013-06-01 02:36:00,55.1,45.9,29.86,NNW,348,0.7,2.2,71,0.00,,,0.00,WUHU216HW,2013-06-01 09:36:00,
2013-06-01 02:41:00,55.1,45.9,29.86,North,0,1.2,2.2,71,0.00,,,0.00,WUHU216HW,2013-06-01 09:41:00,
2013-06-01 02:46:00,55.1,45.9,29.86,North,0,1.3,1.6,71,0.00,,,0.00,WUHU216HW,2013-06-01 09:46:00,
2013-06-01 02:51:00,55.1,45.9,29.86,NNE,23,3.1,3.1,71,0.00,,,0.00,WUHU216HW,2013-06-01 09:51:00,
2013-06-01 02:56:00,55.1,45.9,29.86,North,6,1.7,3.1,71,0.00,,,0.00,WUHU216HW,2013-06-01 09:56:00,
2013-06-01 03:01:00,55.1,45.9,29.86,North,0,1.1,3.1,71,0.00,,,0.00,WUHU216HW,2013-06-01 10:01:00,
2013-06-01 03:06:00,55.1,45.9,29.86,North,0,0.0,1.6,71,0.00,,,0.00,WUHU216HW,2013-06-01 10:06:00,
2013-06-01 03:11:00,55.1,46.3,29.86,North,0,0.4,1.1,72,0.00,,,0.00,WUHU216HW,2013-06-01 10:11:00,
2013-06-01 03:16:00,55.1,46.3,29.86,North,0,0.0,0.4,72,0.00,,,0.00,WUHU216HW,2013-06-01 10:16:00,
2013-06-01 03:21:00,55.1,46.3,29.86,North,0,0.0,0.0,72,0.00,,,0.00,WUHU216HW,2013-06-01 10:21:00,
2013-06-01 03:26:00,55.1,46.3,29.86,North,0,0.0,0.0,72,0.00,,,0.00,WUHU216HW,2013-06-01 10:26:00,
2013-06-01 03:31:00,55.1,46.6,29.86,North,0,0.0,0.0,73,0.00,,,0.00,WUHU216HW,2013-06-01 10:31:00,
2013-06-01 03:36:00,55.1,46.6,29.86,North,0,0.0,0.0,73,0.00,,,0.00,WUHU216HW,2013-06-01 10:36:00,
2013-06-01 03:41:00,55.1,46.6,29.86,NNW,338,0.0,1.3,73,0.00,,,0.00,WUHU216HW,2013-06-01 10:41:00,
2013-06-01 03:46:00,55.1,46.6,29.85,NNW,338,0.0,1.3,73,0.00,,,0.00,WUHU216HW,2013-06-01 10:46:00,
2013-06-01 03:51:00,54.9,46.7,29.85,North,0,1.1,1.6,74,0.00,,,0.00,WUHU216HW,2013-06-01 10:51:00,
2013-06-01 03:56:00,55.1,47.3,29.85,North,0,1.8,2.5,75,0.00,,,0.00,WUHU216HW,2013-06-01 10:56:00,
2013-06-01 04:01:00,54.9,47.1,29.85,North,0,4.0,4.0,75,0.00,,,0.00,WUHU216HW,2013-06-01 11:01:00,
2013-06-01 04:06:00,54.9,47.1,29.85,North,0,1.1,4.0,75,0.00,,,0.00,WUHU216HW,2013-06-01 11:06:00,
2013-06-01 04:11:00,54.9,47.1,29.85,North,0,0.0,1.1,75,0.00,,,0.00,WUHU216HW,2013-06-01 11:11:00,
2013-06-01 04:16:00,54.9,47.1,29.85,NNE,21,1.2,1.8,75,0.00,,,0.00,WUHU216HW,2013-06-01 11:16:00,
2013-06-01 04:21:00,54.9,47.1,29.85,NNE,23,0.0,1.8,75,0.00,,,0.00,WUHU216HW,2013-06-01 11:21:00,
2013-06-01 04:26:00,54.9,47.1,29.85,NNE,23,0.0,0.0,75,0.00,,,0.00,WUHU216HW,2013-06-01 11:26:00,
2013-06-01 04:31:00,54.9,47.1,29.85,NNE,23,0.0,0.0,75,0.00,,,0.00,WUHU216HW,2013-06-01 11:31:00,
2013-06-01 04:36:00,54.9,47.1,29.85,NNE,23,0.2,0.2,75,0.00,,,0.00,WUHU216HW,2013-06-01 11:36:00,
2013-06-01 04:41:00,54.7,46.9,29.85,NNE,23,0.0,0.2,75,0.00,,,0.00,WUHU216HW,2013-06-01 11:41:00,
2013-06-01 04:46:00,54.7,46.9,29.85,North,0,1.2,1.3,75,0.00,,,0.00,WUHU216HW,2013-06-01 11:46:00,
2013-06-01 04:51:00,54.7,46.9,29.84,North,0,0.0,1.3,75,0.00,,,0.00,WUHU216HW,2013-06-01 11:51:00,
2013-06-01 04:56:00,54.7,46.9,29.84,North,0,0.0,0.0,75,0.00,,,0.00,WUHU216HW,2013-06-01 11:56:00,
2013-06-01 05:01:00,54.7,46.9,29.84,North,0,0.0,0.0,75,0.00,,,0.00,WUHU216HW,2013-06-01 12:01:00,
2013-06-01 05:06:00,54.7,46.9,29.84,North,0,0.0,0.0,75,0.00,,,0.00,WUHU216HW,2013-06-01 12:06:00,
2013-06-01 05:11:00,54.7,46.6,29.84,North,0,0.0,0.0,74,0.00,,,0.00,WUHU216HW,2013-06-01 12:11:00,
2013-06-01 05:16:00,54.7,46.6,29.84,North,0,0.0,0.0,74,0.00,,,0.00,WUHU216HW,2013-06-01 12:16:00,
2013-06-01 05:21:00,54.7,46.6,29.84,North,0,0.0,0.0,74,0.00,,,0.00,WUHU216HW,2013-06-01 12:21:00,
2013-06-01 05:26:00,54.7,46.6,29.84,North,0,0.0,0.0,74,0.00,,,0.00,WUHU216HW,2013-06-01 12:26:00,
2013-06-01 05:31:00,54.7,46.3,29.84,North,0,0.0,0.0,73,0.00,,,0.00,WUHU216HW,2013-06-01 12:31:00,
2013-06-01 05:36:00,54.7,46.6,29.85,North,0,0.0,0.0,74,0.00,,,0.00,WUHU216HW,2013-06-01 12:36:00,
2013-06-01 05:41:00,54.7,46.6,29.84,North,0,0.0,0.0,74,0.00,,,0.00,WUHU216HW,2013-06-01 12:41:00,
2013-06-01 05:46:00,54.9,46.7,29.85,North,0,0.0,0.0,74,0.00,,,0.00,WUHU216HW,2013-06-01 12:46:00,
2013-06-01 05:51:00,54.9,46.7,29.84,North,0,0.0,0.0,74,0.00,,,0.00,WUHU216HW,2013-06-01 12:51:00,
2013-06-01 05:56:00,55.1,46.9,29.84,North,0,0.0,0.0,74,0.00,,,0.00,WUHU216HW,2013-06-01 12:56:00,
2013-06-01 06:01:00,55.1,46.9,29.84,North,0,0.0,0.0,74,0.00,,,0.00,WUHU216HW,2013-06-01 13:01:00,
2013-06-01 06:06:00,55.1,46.9,29.84,North,0,0.0,0.0,74,0.00,,,0.00,WUHU216HW,2013-06-01 13:06:00,
2013-06-01 06:11:00,55.1,46.9,29.84,North,0,0.0,0.0,74,0.00,,,0.00,WUHU216HW,2013-06-01 13:11:00,
2013-06-01 06:16:00,55.1,46.9,29.84,North,0,0.0,0.0,74,0.00,,,0.00,WUHU216HW,2013-06-01 13:16:00,
2013-06-01 06:21:00,55.3,47.1,29.84,North,0,0.0,0.0,74,0.00,,,0.00,WUHU216HW,2013-06-01 13:21:00,
2013-06-01 06:26:00,55.4,47.3,29.84,North,0,0.0,0.0,74,0.00,,,0.00,WUHU216HW,2013-06-01 13:26:00,
2013-06-01 06:31:00,55.4,47.3,29.84,North,0,0.0,0.0,74,0.00,,,0.00,WUHU216HW,2013-06-01 13:31:00,
2013-06-01 06:36:00,55.4,47.3,29.84,North,0,0.4,0.4,74,0.00,,,0.00,WUHU216HW,2013-06-01 13:36:00,
2013-06-01 06:41:00,55.4,47.3,29.84,North,0,0.0,0.4,74,0.00,,,0.00,WUHU216HW,2013-06-01 13:41:00,
2013-06-01 06:46:00,55.4,47.3,29.84,ENE,68,0.0,0.4,74,0.00,,,0.00,WUHU216HW,2013-06-01 13:46:00,
2013-06-01 06:51:00,55.4,47.3,29.84,ENE,68,0.0,0.0,74,0.00,,,0.00,WUHU216HW,2013-06-01 13:51:00,
2013-06-01 06:56:00,55.6,47.4,29.84,ENE,68,0.4,0.4,74,0.00,,,0.00,WUHU216HW,2013-06-01 13:56:00,
2013-06-01 07:01:00,55.6,47.4,29.84,ENE,68,0.0,0.4,74,0.00,,,0.00,WUHU216HW,2013-06-01 14:01:00,
2013-06-01 07:06:00,55.8,47.6,29.84,ENE,68,0.0,0.0,74,0.00,,,0.00,WUHU216HW,2013-06-01 14:06:00,
2013-06-01 07:11:00,56.0,47.8,29.84,SSE,158,1.0,1.8,74,0.00,,,0.00,WUHU216HW,2013-06-01 14:11:00,
2013-06-01 07:16:00,55.8,47.6,29.84,SSE,158,0.0,1.8,74,0.00,,,0.00,WUHU216HW,2013-06-01 14:16:00,
2013-06-01 07:21:00,56.2,48.0,29.84,SSE,158,0.0,0.0,74,0.00,,,0.00,WUHU216HW,2013-06-01 14:21:00,
2013-06-01 07:26:00,56.3,48.5,29.84,SSE,158,0.0,0.0,75,0.00,,,0.00,WUHU216HW,2013-06-01 14:26:00,
2013-06-01 07:31:00,56.9,48.6,29.84,SE,139,0.8,1.1,74,0.00,,,0.00,WUHU216HW,2013-06-01 14:31:00,
2013-06-01 07:36:00,57.2,48.6,29.83,SSW,203,1.6,2.9,73,0.00,,,0.00,WUHU216HW,2013-06-01 14:36:00,
2013-06-01 07:41:00,57.4,48.8,29.84,South,189,1.0,2.9,73,0.00,,,0.00,WUHU216HW,2013-06-01 14:41:00,
2013-06-01 07:46:00,57.4,48.4,29.84,SSW,203,1.8,2.9,72,0.00,,,0.00,WUHU216HW,2013-06-01 14:46:00,
2013-06-01 07:51:00,57.4,48.4,29.83,South,185,0.9,2.9,72,0.00,,,0.00,WUHU216HW,2013-06-01 14:51:00,
2013-06-01 07:56:00,57.4,48.4,29.83,South,170,1.6,3.4,72,0.00,,,0.00,WUHU216HW,2013-06-01 14:56:00,
2013-06-01 08:01:00,57.4,48.4,29.83,South,177,0.8,3.4,72,0.00,,,0.00,WUHU216HW,2013-06-01 15:01:00,
2013-06-01 08:06:00,57.4,48.4,29.83,SSE,158,0.7,1.1,72,0.00,,,0.00,WUHU216HW,2013-06-01 15:06:00,
2013-06-01 08:11:00,57.8,48.8,29.83,ENE,78,0.7,1.1,72,0.00,,,0.00,WUHU216HW,2013-06-01 15:11:00,
2013-06-01 08:16:00,58.0,48.6,29.83,SSE,158,1.6,1.8,71,0.00,,,0.00,WUHU216HW,2013-06-01 15:16:00,
2013-06-01 08:21:00,58.1,48.8,29.83,SW,225,1.1,1.8,71,0.00,,,0.00,WUHU216HW,2013-06-01 15:21:00,
2013-06-01 08:26:00,58.5,49.1,29.83,SW,231,1.0,2.0,71,0.00,,,0.00,WUHU216HW,2013-06-01 15:26:00,
2013-06-01 08:31:00,59.0,50.0,29.83,South,180,0.0,2.0,72,0.00,,,0.00,WUHU216HW,2013-06-01 15:31:00,
2013-06-01 08:36:00,59.8,50.4,29.83,SW,218,0.4,1.1,71,0.00,,,0.00,WUHU216HW,2013-06-01 15:36:00,
2013-06-01 08:41:00,60.7,50.5,29.83,East,90,1.3,1.8,69,0.00,,,0.00,WUHU216HW,2013-06-01 15:41:00,
2013-06-01 08:42:00,61.0,50.9,29.83,ENE,68,0.4,0.7,69,0.00,,,0.00,WUHU216HW,2013-06-01 15:42:00,
2013-06-01 08:46:00,61.0,50.9,29.83,ENE,68,0.4,1.8,69,0.00,,,0.00,WUHU216HW,2013-06-01 15:46:00,
2013-06-01 08:51:00,61.0,50.9,29.83,ENE,68,0.4,0.7,69,0.00,,,0.00,WUHU216HW,2013-06-01 15:51:00,
2013-06-01 09:00:00,62.5,51.0,29.82,NE,45,0.9,0.9,66,0.00,,,0.00,WUHU216HW,2013-06-01 16:00:00,
2013-06-01 09:05:00,62.8,50.9,29.82,South,182,2.1,3.4,65,0.00,,,0.00,WUHU216HW,2013-06-01 16:05:00,
2013-06-01 09:08:00,62.8,51.3,29.82,SSE,158,0.4,0.4,66,0.00,,,0.00,WUHU216HW,2013-06-01 16:08:00,
2013-06-01 09:10:00,62.8,51.3,29.82,SSE,158,0.4,3.4,66,0.00,,,0.00,WUHU216HW,2013-06-01 16:10:00,
2013-06-01 09:15:00,62.8,51.3,29.82,SSE,158,0.4,2.5,66,0.00,,,0.00,WUHU216HW,2013-06-01 16:15:00,
2013-06-01 10:00:00,64.1,51.6,29.81,NW,315,0.0,0.0,64,0.00,,,0.00,WUHU216HW,2013-06-01 17:00:00,
2013-06-01 10:05:00,64.1,51.6,29.81,NW,315,0.0,0.0,64,0.00,,,0.00,WUHU216HW,2013-06-01 17:05:00,
2013-06-01 11:00:00,69.7,51.8,29.79,SSE,158,2.5,2.5,53,0.00,,,0.00,WUHU216HW,2013-06-01 18:00:00,
2013-06-01 11:05:00,69.5,51.6,29.79,South,180,3.1,3.6,53,0.00,,,0.00,WUHU216HW,2013-06-01 18:05:00,
2013-06-01 11:10:00,68.9,51.1,29.79,SSE,158,2.0,4.0,53,0.00,,,0.00,WUHU216HW,2013-06-01 18:10:00,
2013-06-01 11:15:00,69.1,51.2,29.79,South,179,1.8,4.0,53,0.00,,,0.00,WUHU216HW,2013-06-01 18:15:00,
2013-06-01 11:20:00,69.1,51.2,29.79,SW,220,2.2,3.4,53,0.00,,,0.00,WUHU216HW,2013-06-01 18:20:00,
2013-06-01 11:25:00,69.5,51.1,29.79,SSW,203,2.5,3.4,52,0.00,,,0.00,WUHU216HW,2013-06-01 18:25:00,
2013-06-01 11:30:00,70.2,52.7,29.79,SE,135,0.9,3.1,54,0.00,,,0.00,WUHU216HW,2013-06-01 18:30:00,
2013-06-01 11:35:00,70.7,51.2,29.80,WSW,248,1.8,3.4,50,0.00,,,0.00,WUHU216HW,2013-06-01 18:35:00,
2013-06-01 11:40:00,71.1,50.3,29.80,West,270,3.4,3.4,48,0.00,,,0.00,WUHU216HW,2013-06-01 18:40:00,
2013-06-01 11:45:00,70.7,49.4,29.80,WSW,248,2.0,3.4,47,0.00,,,0.00,WUHU216HW,2013-06-01 18:45:00,
2013-06-01 11:50:00,70.2,49.0,29.80,SW,218,0.9,3.4,47,0.00,,,0.00,WUHU216HW,2013-06-01 18:50:00,
2013-06-01 11:55:00,70.2,50.1,29.80,SSE,158,2.1,3.4,49,0.00,,,0.00,WUHU216HW,2013-06-01 18:55:00,
2013-06-01 12:00:00,70.7,51.2,29.79,SSE,158,1.1,2.9,50,0.00,,,0.00,WUHU216HW,2013-06-01 19:00:00,
2013-06-01 12:05:00,71.6,50.2,29.79,WSW,249,1.5,3.4,47,0.00,,,0.00,WUHU216HW,2013-06-01 19:05:00,
2013-06-01 12:10:00,72.0,51.1,29.79,SW,225,2.0,3.4,48,0.00,,,0.00,WUHU216HW,2013-06-01 19:10:00,
2013-06-01 12:15:00,72.9,51.4,29.79,WSW,243,1.6,4.5,47,0.00,,,0.00,WUHU216HW,2013-06-01 19:15:00,
2013-06-01 12:20:00,73.4,51.8,29.78,WSW,248,1.8,4.5,47,0.00,,,0.00,WUHU216HW,2013-06-01 19:20:00,
2013-06-01 12:25:00,73.4,48.3,29.78,South,181,3.3,5.6,41,0.00,,,0.00,WUHU216HW,2013-06-01 19:25:00,
2013-06-01 12:30:00,72.4,47.4,29.78,South,180,2.4,5.6,41,0.00,,,0.00,WUHU216HW,2013-06-01 19:30:00,
2013-06-01 12:35:00,72.2,47.8,29.78,South,190,2.5,3.4,42,0.00,,,0.00,WUHU216HW,2013-06-01 19:35:00,
2013-06-01 12:40:00,72.9,49.0,29.78,SSE,162,1.7,4.0,43,0.00,,,0.00,WUHU216HW,2013-06-01 19:40:00,
2013-06-01 12:45:00,73.8,50.4,29.78,NNW,334,1.5,4.7,44,0.00,,,0.00,WUHU216HW,2013-06-01 19:45:00,
2013-06-01 12:50:00,74.5,49.3,29.78,WSW,248,3.6,4.7,41,0.00,,,0.00,WUHU216HW,2013-06-01 19:50:00,
2013-06-01 12:55:00,74.5,48.7,29.78,WSW,248,4.0,4.5,40,0.00,,,0.00,WUHU216HW,2013-06-01 19:55:00,
2013-06-01 13:00:00,74.2,49.6,29.77,SE,135,4.5,4.5,42,0.00,,,0.00,WUHU216HW,2013-06-01 20:00:00,
2013-06-01 13:05:00,74.2,50.8,29.77,WSW,248,1.6,5.1,44,0.00,,,0.00,WUHU216HW,2013-06-01 20:05:00,
2013-06-01 13:10:00,74.3,51.0,29.77,NNW,341,2.3,5.1,44,0.00,,,0.00,WUHU216HW,2013-06-01 20:10:00,
2013-06-01 13:16:00,74.0,48.2,29.77,South,180,5.1,7.2,40,0.00,,,0.00,WUHU216HW,2013-06-01 20:16:00,
2013-06-01 13:20:00,73.6,47.9,29.77,SSE,158,2.5,7.2,40,0.00,,,0.00,WUHU216HW,2013-06-01 20:20:00,
2013-06-01 13:26:00,72.9,48.4,29.77,WNW,293,2.2,5.6,42,0.00,,,0.00,WUHU216HW,2013-06-01 20:26:00,
2013-06-01 13:31:00,73.4,48.9,29.77,SSW,206,1.9,2.7,42,0.00,,,0.00,WUHU216HW,2013-06-01 20:31:00,
2013-06-01 13:36:00,74.5,49.9,29.77,SSE,158,2.0,2.7,42,0.00,,,0.00,WUHU216HW,2013-06-01 20:36:00,
2013-06-01 13:40:00,75.2,50.0,29.77,SSE,158,0.0,0.0,41,0.00,,,0.00,WUHU216HW,2013-06-01 20:40:00,
2013-06-01 13:41:00,75.2,50.0,29.77,South,172,3.1,4.7,41,0.00,,,0.00,WUHU216HW,2013-06-01 20:41:00,
2013-06-01 13:46:00,75.2,50.0,29.77,SSE,158,0.0,4.7,41,0.00,,,0.00,WUHU216HW,2013-06-01 20:46:00,
2013-06-01 14:00:00,75.2,48.6,29.76,SSW,203,3.4,3.4,39,0.00,,,0.00,WUHU216HW,2013-06-01 21:00:00,
2013-06-01 14:05:00,75.2,48.6,29.76,SSW,203,3.4,3.4,39,0.00,,,0.00,WUHU216HW,2013-06-01 21:05:00,
2013-06-01 15:00:00,77.4,48.3,29.75,WNW,293,1.8,1.8,36,0.00,,,0.00,WUHU216HW,2013-06-01 22:00:00,
2013-06-01 15:05:00,77.4,48.3,29.75,WNW,293,1.8,1.8,36,0.00,,,0.00,WUHU216HW,2013-06-01 22:05:00,
2013-06-01 16:00:00,79.4,47.6,29.74,NNW,338,0.7,0.7,33,0.00,,,0.00,WUHU216HW,2013-06-01 23:00:00,
2013-06-01 16:05:00,77.8,45.5,29.74,North,0,5.1,5.1,32,0.00,,,0.00,WUHU216HW,2013-06-01 23:05:00,
2013-06-01 16:10:00,77.6,46.1,29.73,ESE,113,2.7,5.1,33,0.00,,,0.00,WUHU216HW,2013-06-01 23:10:00,
2013-06-01 16:15:00,77.0,46.5,29.73,NNE,23,1.8,5.1,34,0.00,,,0.00,WUHU216HW,2013-06-01 23:15:00,
2013-06-01 16:20:00,77.4,46.7,29.73,NNE,23,1.8,2.7,34,0.00,,,0.00,WUHU216HW,2013-06-01 23:20:00,
2013-06-01 16:25:00,77.4,46.7,29.73,NNE,23,2.2,2.9,34,0.00,,,0.00,WUHU216HW,2013-06-01 23:25:00,
2013-06-01 16:30:00,76.7,46.1,29.73,NNW,338,2.0,2.9,34,0.00,,,0.00,WUHU216HW,2013-06-01 23:30:00,
2013-06-01 16:35:00,77.0,47.2,29.73,NNE,19,1.7,4.5,35,0.00,,,0.00,WUHU216HW,2013-06-01 23:35:00,
2013-06-01 16:40:00,77.2,46.5,29.73,North,0,3.4,4.5,34,0.00,,,0.00,WUHU216HW,2013-06-01 23:40:00,
2013-06-01 16:45:00,77.6,47.6,29.73,NE,45,2.0,3.4,35,0.00,,,0.00,WUHU216HW,2013-06-01 23:45:00,
2013-06-01 16:50:00,77.8,47.8,29.73,NNE,23,2.2,3.4,35,0.00,,,0.00,WUHU216HW,2013-06-01 23:50:00,
2013-06-01 16:55:00,79.0,48.9,29.72,SSE,158,1.1,3.4,35,0.00,,,0.00,WUHU216HW,2013-06-01 23:55:00,
2013-06-01 17:00:00,80.3,48.4,29.72,North,354,1.2,2.2,33,0.00,,,0.00,WUHU216HW,2013-06-02 00:00:00,
2013-06-01 17:05:00,81.0,49.1,29.72,NNW,338,2.1,2.2,33,0.00,,,0.00,WUHU216HW,2013-06-02 00:05:00,
2013-06-01 17:10:00,81.4,48.6,29.71,NNW,338,2.7,2.7,32,0.00,,,0.00,WUHU216HW,2013-06-02 00:10:00,
2013-06-01 17:15:00,81.4,47.8,29.71,North,0,3.4,3.4,31,0.00,,,0.00,WUHU216HW,2013-06-02 00:15:00,
2013-06-01 17:20:00,81.4,49.3,29.72,NNW,338,0.2,3.4,33,0.00,,,0.00,WUHU216HW,2013-06-02 00:20:00,
2013-06-01 17:25:00,81.7,49.7,29.71,North,0,1.1,3.4,33,0.00,,,0.00,WUHU216HW,2013-06-02 00:25:00,
2013-06-01 17:30:00,81.7,48.1,29.71,North,0,2.5,2.5,31,0.00,,,0.00,WUHU216HW,2013-06-02 00:30:00,
2013-06-01 17:35:00,80.3,48.4,29.71,WSW,248,1.8,2.5,33,0.00,,,0.00,WUHU216HW,2013-06-02 00:35:00,
2013-06-01 17:40:00,81.0,49.1,29.71,NNE,23,4.3,4.3,33,0.00,,,0.00,WUHU216HW,2013-06-02 00:40:00,
2013-06-01 17:45:00,80.6,48.8,29.71,North,0,2.5,4.3,33,0.00,,,0.00,WUHU216HW,2013-06-02 00:45:00,
2013-06-01 17:51:00,79.9,48.9,29.71,NNE,23,2.9,4.3,34,0.00,,,0.00,WUHU216HW,2013-06-02 00:51:00,
2013-06-01 17:56:00,79.6,49.3,29.71,North,0,2.5,2.9,35,0.00,,,0.00,WUHU216HW,2013-06-02 00:56:00,
2013-06-01 18:01:00,76.7,49.2,29.71,NNE,23,5.6,5.6,38,0.00,,,0.00,WUHU216HW,2013-06-02 01:01:00,
2013-06-01 18:06:00,74.2,49.0,29.71,North,349,3.1,5.6,41,0.00,,,0.00,WUHU216HW,2013-06-02 01:06:00,
2013-06-01 18:11:00,73.4,48.9,29.71,NNW,338,2.7,5.6,42,0.00,,,0.00,WUHU216HW,2013-06-02 01:11:00,
2013-06-01 18:16:00,73.3,49.3,29.71,North,0,4.7,4.7,43,0.00,,,0.00,WUHU216HW,2013-06-02 01:16:00,
2013-06-01 18:21:00,73.3,49.3,29.71,North,0,4.7,4.7,43,0.00,,,0.00,WUHU216HW,2013-06-02 01:21:00,
2013-06-01 18:25:00,73.3,49.3,29.71,North,0,4.7,4.7,43,0.00,,,0.00,WUHU216HW,2013-06-02 01:25:00,
2013-06-01 18:26:00,73.3,49.3,29.71,North,0,4.7,4.7,43,0.00,,,0.00,WUHU216HW,2013-06-02 01:26:00,
2013-06-01 18:31:00,73.3,49.3,29.71,North,0,4.7,4.7,43,0.00,,,0.00,WUHU216HW,2013-06-02 01:31:00,